TimeEDT,TemperatureF,Dew PointF,Humidity,Sea Level PressureIn,VisibilityMPH,Wind Direction,Wind SpeedMPH,Gust SpeedMPH,PrecipitationIn,Events,Conditions,WindDirDegrees,DateUTC
12:15 AM,71.6,68.4,89,30.07,10.0,SSW,3.5,-,N/A,,Clear,210,2013-05-17 04:15:00
12:35 AM,71.1,68.2,91,30.07,10.0,Calm,Calm,-,N/A,,Clear,0,2013-05-17 04:35:00
12:55 AM,70.5,68.0,92,30.07,10.0,Calm,Calm,-,N/A,,Clear,0,2013-05-17 04:55:00
1:15 AM,70.0,68.0,93,30.07,10.0,Calm,Calm,-,N/A,,Clear,0,2013-05-17 05:15:00
1:35 AM,69.1,67.1,93,30.06,10.0,Calm,Calm,-,N/A,,Clear,0,2013-05-17 05:35:00
1:55 AM,66.2,65.3,97,30.06,10.0,Calm,Calm,-,N/A,,Clear,0,2013-05-17 05:55:00
2:15 AM,66.0,65.7,99,30.06,7.0,Calm,Calm,-,N/A,,Clear,0,2013-05-17 06:15:00
2:35 AM,65.3,65.3,100,30.06,4.0,Calm,Calm,-,N/A,,Clear,0,2013-05-17 06:35:00
2:55 AM,65.3,65.3,100,30.06,7.0,Calm,Calm,-,N/A,,Clear,0,2013-05-17 06:55:00
3:15 AM,66.2,66.2,100,30.05,7.0,Calm,Calm,-,N/A,,Clear,0,2013-05-17 07:15:00
3:35 AM,64.9,64.9,100,30.05,5.0,Calm,Calm,-,N/A,,Clear,0,2013-05-17 07:35:00
3:55 AM,64.6,64.6,100,30.05,5.0,Calm,Calm,-,N/A,,Clear,0,2013-05-17 07:55:00
4:15 AM,64.4,64.4,100,30.06,5.0,Calm,Calm,-,N/A,,Clear,0,2013-05-17 08:15:00
4:35 AM,64.0,64.0,100,30.07,5.0,Calm,Calm,-,N/A,,Clear,0,2013-05-17 08:35:00
4:55 AM,65.3,65.3,100,30.07,5.0,Calm,Calm,-,N/A,,Clear,0,2013-05-17 08:55:00
5:15 AM,64.6,64.6,100,30.07,7.0,Calm,Calm,-,N/A,,Clear,0,2013-05-17 09:15:00
5:35 AM,63.9,63.9,100,30.08,5.0,Calm,Calm,-,N/A,,Clear,0,2013-05-17 09:35:00
5:55 AM,63.5,63.5,100,30.09,5.0,Calm,Calm,-,N/A,,Clear,0,2013-05-17 09:55:00
6:15 AM,63.3,63.3,100,30.09,7.0,Calm,Calm,-,N/A,,Clear,0,2013-05-17 10:15:00
6:35 AM,62.8,62.8,100,30.10,4.0,Calm,Calm,-,N/A,,Clear,0,2013-05-17 10:35:00
6:55 AM,62.6,62.6,100,30.10,4.0,Calm,Calm,-,N/A,,Clear,0,2013-05-17 10:55:00
7:15 AM,63.3,63.3,100,30.11,4.0,Calm,Calm,-,N/A,,Clear,0,2013-05-17 11:15:00
7:35 AM,64.6,64.6,100,30.11,5.0,Calm,Calm,-,N/A,,Clear,0,2013-05-17 11:35:00
7:55 AM,67.5,67.1,99,30.11,10.0,SW,3.5,-,N/A,,Clear,230,2013-05-17 11:55:00
8:15 AM,70.5,67.1,89,30.12,10.0,Calm,Calm,-,N/A,,Clear,0,2013-05-17 12:15:00
8:35 AM,72.1,67.8,86,30.12,10.0,SW,4.6,-,N/A,,Clear,230,2013-05-17 12:35:00
8:55 AM,72.9,67.6,84,30.13,10.0,WSW,4.6,-,N/A,,Clear,250,2013-05-17 12:55:00
9:15 AM,73.0,67.6,83,30.13,10.0,Calm,Calm,-,N/A,,Clear,0,2013-05-17 13:15:00
9:35 AM,75.2,68.2,79,30.13,10.0,WNW,3.5,-,N/A,,Clear,290,2013-05-17 13:35:00
9:55 AM,77.4,67.6,72,30.13,10.0,West,3.5,-,N/A,,Clear,280,2013-05-17 13:55:00
10:15 AM,79.2,67.3,67,30.13,10.0,NNW,3.5,-,N/A,,Clear,330,2013-05-17 14:15:00
10:35 AM,81.3,67.5,63,30.13,10.0,NW,3.5,-,N/A,,Clear,320,2013-05-17 14:35:00
10:55 AM,82.0,66.7,60,30.13,10.0,WNW,4.6,-,N/A,,Clear,300,2013-05-17 14:55:00
11:15 AM,83.3,66.7,57,30.13,10.0,NW,4.6,-,N/A,,Clear,320,2013-05-17 15:15:00
11:35 AM,84.6,65.8,53,30.13,10.0,Calm,Calm,-,N/A,,Clear,0,2013-05-17 15:35:00
11:55 AM,84.4,63.0,48,30.13,10.0,Calm,Calm,-,N/A,,Scattered Clouds,0,2013-05-17 15:55:00
12:15 PM,85.3,64.6,50,30.13,10.0,WNW,3.5,-,N/A,,Scattered Clouds,300,2013-05-17 16:15:00
12:35 PM,86.2,65.3,50,30.12,10.0,Calm,Calm,-,N/A,,Clear,0,2013-05-17 16:35:00
12:55 PM,86.5,64.6,48,30.12,10.0,Calm,Calm,-,N/A,,Scattered Clouds,0,2013-05-17 16:55:00
1:15 PM,86.9,64.0,46,30.12,10.0,Calm,Calm,-,N/A,,Scattered Clouds,0,2013-05-17 17:15:00
1:35 PM,86.2,64.4,48,30.11,10.0,West,3.5,-,N/A,,Scattered Clouds,260,2013-05-17 17:35:00
1:55 PM,86.7,64.2,47,30.11,10.0,Calm,Calm,-,N/A,,Clear,0,2013-05-17 17:55:00
2:15 PM,88.3,64.4,45,30.10,10.0,WSW,5.8,-,N/A,,Clear,250,2013-05-17 18:15:00
2:35 PM,87.6,64.6,46,30.10,10.0,SW,4.6,-,N/A,,Clear,220,2013-05-17 18:35:00
2:55 PM,86.0,65.3,50,30.10,10.0,Calm,Calm,-,N/A,,Clear,0,2013-05-17 18:55:00
3:15 PM,86.7,65.5,49,30.09,10.0,SW,3.5,-,N/A,,Clear,230,2013-05-17 19:15:00
3:35 PM,86.2,64.8,49,30.09,10.0,WSW,3.5,-,N/A,,Clear,250,2013-05-17 19:35:00
3:55 PM,86.9,65.5,49,30.08,10.0,SW,3.5,-,N/A,,Clear,230,2013-05-17 19:55:00
4:15 PM,87.4,64.4,46,30.07,10.0,Calm,Calm,-,N/A,,Clear,0,2013-05-17 20:15:00
4:35 PM,86.0,65.5,50,30.07,10.0,Calm,Calm,-,N/A,,Clear,0,2013-05-17 20:35:00
4:55 PM,85.8,65.7,51,30.07,10.0,Calm,Calm,-,N/A,,Clear,0,2013-05-17 20:55:00
5:15 PM,85.3,67.1,54,30.07,10.0,Calm,Calm,-,N/A,,Clear,0,2013-05-17 21:15:00
5:35 PM,84.4,67.3,56,30.07,10.0,West,5.8,-,N/A,,Scattered Clouds,280,2013-05-17 21:35:00
5:55 PM,82.9,67.6,60,30.07,10.0,NW,8.1,-,N/A,,Mostly Cloudy,320,2013-05-17 21:55:00
6:15 PM,83.1,68.5,61,30.07,10.0,North,3.5,-,N/A,,Scattered Clouds,10,2013-05-17 22:15:00
6:35 PM,83.3,68.5,61,30.06,10.0,Calm,Calm,-,N/A,,Clear,0,2013-05-17 22:35:00
6:55 PM,83.1,69.4,63,30.06,10.0,Calm,Calm,-,N/A,,Clear,0,2013-05-17 22:55:00
7:15 PM,82.8,69.4,64,30.06,10.0,Calm,Calm,-,N/A,,Clear,0,2013-05-17 23:15:00
7:35 PM,82.0,70.7,68,30.06,10.0,Calm,Calm,-,N/A,,Scattered Clouds,0,2013-05-17 23:35:00
7:55 PM,81.7,70.5,69,30.07,10.0,SE,3.5,-,N/A,,Scattered Clouds,140,2013-05-17 23:55:00
8:15 PM,80.6,69.3,68,30.07,10.0,SSE,3.5,-,N/A,,Clear,160,2013-05-18 00:15:00
8:35 PM,79.2,67.1,66,30.08,10.0,SSE,3.5,-,N/A,,Clear,150,2013-05-18 00:35:00
8:55 PM,78.1,66.4,67,30.08,10.0,Calm,Calm,-,N/A,,Clear,0,2013-05-18 00:55:00
9:15 PM,77.0,66.7,70,30.09,10.0,Calm,Calm,-,N/A,,Clear,0,2013-05-18 01:15:00
9:35 PM,76.1,67.1,74,30.10,10.0,Calm,Calm,-,N/A,,Clear,0,2013-05-18 01:35:00
9:55 PM,75.2,66.9,75,30.10,10.0,Calm,Calm,-,N/A,,Scattered Clouds,0,2013-05-18 01:55:00
10:15 PM,73.0,66.7,81,30.11,10.0,Calm,Calm,-,N/A,,Clear,0,2013-05-18 02:15:00
10:35 PM,73.4,66.2,78,30.11,10.0,Calm,Calm,-,N/A,,Clear,0,2013-05-18 02:35:00
10:55 PM,72.1,65.7,80,30.11,10.0,Calm,Calm,-,N/A,,Clear,0,2013-05-18 02:55:00
11:15 PM,71.6,65.5,81,30.11,10.0,Calm,Calm,-,N/A,,Clear,0,2013-05-18 03:15:00
11:35 PM,71.2,65.3,81,30.11,10.0,Calm,Calm,-,N/A,,Clear,0,2013-05-18 03:35:00
11:55 PM,70.7,65.3,83,30.11,10.0,Calm,Calm,-,N/A,,Clear,0,2013-05-18 03:55:00